Simultaneous Nadir Overpasses (SNOs) Predictions

Prediction of SNOs between GOES-16 and LANDSAT-8 Satellite Orbit:

Table of predicted SNOs for the next 14.0 days since TLE Epoch: 3/27/2021
Index Date Time (GOES-16) GOES-16 Lat,Lon LANDSAT-8 Lat,Lon Distance(km) Time Diff (sec)
1 03/27/2021 15:02:52 0.04, -75.24 -0.58, -72.42 320.61 80
2 03/28/2021 03:24:15 -0.05, -75.22 -0.54, -77.61 272.28 80
3 03/30/2021 03:09:23 -0.04, -75.23 0.08, -74.66 65.43 80
4 04/01/2021 02:57:12 -0.04, -75.25 0.70, -71.70 403.37 80
5 04/01/2021 15:18:27 0.04, -75.28 0.36, -76.87 179.83 80
6 04/03/2021 15:08:55 0.04, -75.30 -0.27, -73.91 158.41 80
7 04/04/2021 03:30:19 -0.04, -75.29 -0.84, -79.10 433.75 80
8 04/05/2021 14:56:43 0.03, -75.33 -0.90, -70.96 497.17 80
9 04/06/2021 03:18:07 -0.03, -75.31 -0.21, -76.15 94.83 80
10 04/08/2021 03:03:15 -0.03, -75.35 0.42, -73.19 245.07 80
11 04/08/2021 15:24:31 0.03, -75.38 0.64, -78.36 338.00 80
